User: anonymous   Login
Location: Muenchen
(48.1800°N, 11.5800°E)
Time: 00:31:10
(UTC+02:00)
Language:

Iridium 73 - Orbit

View from above orbital plane
View from above orbital plane
View from above satellite
View from above satellite

Ground track
Ground track

The orbit data is extracted from the following two-line orbital elements,

1 25344U 98032C   16243.34323535  .00000144  00000-0  32520-4 0  9999
2 25344  86.4459 325.8560 0001878  77.5139 282.6275 14.48962779965437
Epoch (UTC): 30 August 2016 08:14:15
Eccentricity: 0.0001878
inclination: 86.4459°
perigee height: 728 km
apogee height: 730 km
right ascension of ascending node: 325.8560°
argument of perigee: 77.5139°
revolutions per day: 14.48962779
mean anomaly at epoch: 282.6275°
orbit number at epoch: 96543

The dashed part of the orbit path shows where the satellite is in the earth's shadow,  

DLR